Regional Weather Roundup
Issued by NWS Grand Forks, ND

Home | Current Version | Previous Version | Graphics & Text | Print | Product List | Glossary On
Versions: 1 2 3 4 5 6 7 8 9 10 11 12 13 14 15 16 17 18 19 20 21 22 23 24 25 26 27 28 29 30 31 32 33 34 35 36 37 38 39 40 41 42 43 44 45 46 47 48 49 50
000
ASUS43 KFGF 271510
RWRFGF
PRAIRIE TO PINES  WEATHER ROUNDUP
NATIONAL WEATHER SERVICE EASTERN NORTH DAKOTA/GRAND FORKS ND
1000 AM CDT WED AUG 27 2014

 **SATELLITE DATA USED TO AUGMENT SKY COVER AT AUTOMATED STATIONS**
 *****  WEATHER ACROSS EASTERN NORTH DAKOTA  *****

CITY           SKY/WX    TMP DP  RH WIND       PRES   REMARKS
GRAND FORKS    SUNNY     61  55  81 S5        30.18S
GRAND FRKS AFB SUNNY     62  58  86 VRB3      30.18S
GRAND FRKS NWS   N/A     61 N/A N/A SW5         N/A
DEVILS LAKE    SUNNY     61  50  67 S5        30.16S
FARGO          SUNNY     64  58  80 CALM      30.19S
WAHPETON ARPT  PTSUNNY   64  55  72 SE7       30.20S
$$

 ***** WEATHER ACROSS CENTRAL AND WESTERN NORTH DAKOTA  *****

CITY           SKY/WX    TMP DP  RH WIND       PRES   REMARKS
BISMARCK       PTSUNNY   55  55 100 E3        30.17F
MINOT          SUNNY     63  53  70 S9        30.13S
JAMESTOWN      MOSUNNY   58  56  93 E3        30.18S
MINOT AFB      SUNNY     62  59  88 SW6       30.12F
GARRISON         N/A     59  57  93 S6        30.15S
WILLISTON      SUNNY     62  55  77 SE6       30.10F
DICKINSON      SUNNY     61  56  83 S8        30.14S
HETTINGER      SUNNY     59  55  87 S7        30.17S
$$

 *****  OTHER AIRPORT OBSERVATIONS IN OUR AREA  *****

CITY           SKY/WX    TMP DP  RH WIND       PRES   REMARKS
WALHALLA         N/A     64  57  77 SW6       30.15S
GRAFTON AIRPOR FAIR      61  57  88 CALM      30.17S
VALLEY CITY AR CLOUDY    59  59 100 E3        30.19S
CANDO          FAIR      59  55  88 SE6       30.17S
CAVALIER APRT  FAIR      63  55  77 CALM      30.16S
GWINNER        SUNNY     64  61  88 E7        30.20R
SHEYENNE NWR     N/A     64  58  81 SE6       29.95S
ROLLA          FAIR      61  55  82 SW9       30.16F
 ***** THE ABOVE OBSERVATIONS ARE NON NWS ARE NOT QUALITY
       CONTROLLED AND MAY MIS-REPORT RAIN FOR SNOW...
$$

  *****  WEATHER ACROSS NORTHERN MINNESOTA  *****

CITY           SKY/WX    TMP DP  RH WIND       PRES   REMARKS
FLAG ISLAND    SUNNY     63  55  77 CALM      30.15S
WARROAD        FOG       52  48  87 CALM      30.19S VSB 1/2
ROSEAU         MOSUNNY   54  48  82 CALM      30.18S
HALLOCK        SUNNY     57  55  94 S6        30.17R
THF RVR FALLS  SUNNY     61  55  82 SW5       30.19S
BAUDETTE       PTSUNNY   55  52  89 SW5       30.19R
WASKISH        SUNNY     63  57  82 SW8       30.19S
CROOKSTON      SUNNY     59  55  88 SW6       30.19F
$$
  *****  WEATHER ACROSS CENTRAL AND WEST MINNESOTA  *****

CITY           SKY/WX    TMP DP  RH WIND       PRES   REMARKS
FOSSTON        SUNNY     59  55  88 SW6       30.21S
BEMIDJI        SUNNY     61  54  78 W5        30.21S
PARK RAPIDS    SUNNY     62  54  74 VRB3      30.21S
ELBOW LAKE     PTSUNNY   63  57  80 SE5       30.21R
WADENA         PTSUNNY   63  55  77 E5        30.21S
DETROIT LAKES  MOSUNNY   63  54  72 CALM      30.22R
MOORHEAD       SUNNY     64  61  88 CALM      30.20S
FERGUS FALLS   SUNNY     64  54  68 S5        30.20S
MORRIS MN      SUNNY     66  57  72 SE6       30.19S
STAPLES        PTSUNNY   63  55  77 CALM      30.22R
$$
  *****  WEATHER ELSEWHERE ACROSS MINNESOTA  *****

CITY           SKY/WX    TMP DP  RH WIND       PRES   REMARKS
DULUTH         SUNNY     62  50  64 NW3       30.22R
INTRNTL FALLS  CLOUDY    58  52  80 CALM      30.19S
ELY            SUNNY     57  46  67 NW6       30.21S
CLOQUET        SUNNY     61  50  67 CALM      30.22S
WHEATON        SUNNY     63  57  82 SE6       30.21S
BRAINERD       SUNNY     62  55  77 CALM      30.22S
HIBBING        SUNNY     62  51  67 VRB3      30.22S
ALEXANDRIA     SUNNY     63  57  81 SE7       30.23R
SAINT CLOUD    SUNNY     66  55  67 S7        30.22R
MINNEAPOLIS    MOSUNNY   67  54  63 E7        30.22R
$$

  *****  WEATHER ACROSS SOUTH DAKOTA  *****

CITY           SKY/WX    TMP DP  RH WIND       PRES   REMARKS
SIOUX FALLS    CLOUDY    64  57  78 E6        30.21R
BROOKINGS      NOT AVBL
WATERTOWN      MOSUNNY   65  57  75 SE10      30.20R
HURON          CLOUDY    63  58  83 SE9       30.17R
SISSETON         N/A     65  57  75 S5        30.18S
ABERDEEN       SUNNY     64  59  83 SE8       30.17S
MITCHELL       CLOUDY    63  59  87 SE10      30.17S
PIERRE         CLOUDY    62  62 100 E7        30.11S FOG
MOBRIDGE       SUNNY     63  58  83 E7        30.12F
RAPID CITY     SUNNY     64  55  72 N8        30.15F
$$

  *****  SOME WEATHER IN NEARBY STATES *****

CITY           SKY/WX    TMP DP  RH WIND       PRES   REMARKS
GLASGOW MT     SUNNY     62  53  72 SE13      30.02F
GREAT FALLS MT SUNNY     65  45  48 S9        30.08S
CHEYENNE WY    CLOUDY    59  55  87 W7        30.21S
SCOTTSBLUFF NE CLOUDY    67  64  90 E7        30.13F
OMAHA NE       TSTM      68  66  93 NE9       30.16R FOG
DES MOINES IA  CLOUDY    71  63  75 SE7       30.15S
DAVENPORT IA   PTSUNNY   71  61  70 E7        30.17R
CHICAGO IL     PTSUNNY   75  59  57 NE7       30.14S
EAU CLAIRE WI  MOSUNNY   66  55  67 NE6       30.21R
LA CROSSE WI   MOSUNNY   72  56  57 E5        30.20R
$$

  *****  SOME NATIONAL WEATHER *****

CITY           SKY/WX    TMP DP  RH WIND       PRES   REMARKS
LA GUARDIA NY  MOSUNNY   83  60  45 W8        30.01F
RALEIGH NC     MOSUNNY   77  62  59 VRB6      30.08S
ATLANTA GA     MOSUNNY   78  60  53 SE5       30.14R
NEW ORLEANS LA PTSUNNY   86  74  67 NE14      30.02R HX  94
OKLAHOMA CITY  MOSUNNY   79  70  74 S6        30.12S
ALBUQUERQUE NM PTSUNNY   64  57  78 CALM      30.32R
SALT LAKE CITY PTSUNNY   62  56  80 SE6       30.21S
LOS ANGELES CA MOSUNNY   72  62  71 CALM      30.03S
BOISE ID       SUNNY     67  45  45 SE3       30.14R
SEATTLE WA     SUNNY     64  57  78 CALM      30.06R
$$

*** WEATHER ACROSS MANITOBA...SASKATCHEWAN AND ONTARIO ***
                ***ONTARIO***

CITY           SKY/WX    TMP DP  RH WIND       PRES   REMARKS
GERALDTON      MOSUNNY   57  48  72 NW6       30.11S
THUNDER BAY    MOSUNNY   63  50  63 NW9       30.17S
SIOUX LOOKOUT  MOSUNNY   59  46  63 NW8       30.17S
TORONTO        MOSUNNY   70  55  60 NW6       30.08R
BIG TROUT LK     N/A     50  46  87 NW5       30.10S
PICKLE LAKE    PTSUNNY   54  43  66 NW8       30.14S
DRYDEN         MOSUNNY   57  46  67 W7        30.18S
KENORA         MOSUNNY   61  50  67 VRB2      30.18S
$$
                *** MANITOBA***

CITY           SKY/WX    TMP DP  RH WIND       PRES   REMARKS
BRANDON        SUNNY     61  55  82 SW6       30.12F
DAUPHIN        SUNNY     68  55  64 SW14G21   30.04S
ISLAND LAKE    MOSUNNY   55  50  82 CALM      30.05F
PILOT MOUND      N/A     63  54  72 SW8         N/A
THE PAS        PTSUNNY   64  52  63 S9        29.85F
THOMPSON       MOSUNNY   61  54  77 S8        29.84F
WINNIPEG       SUNNY     63  50  63 S6        30.14F
LYNN LAKE      SUNNY     63  54  72 MISG      29.74F
CHURCHILL      PTSUNNY   52  45  76 S18G29    29.81F
GILLAM         MOSUNNY   55  48  76 S8        29.94F
$$
                ***SASKATCHEWAN***

CITY           SKY/WX    TMP DP  RH WIND       PRES   REMARKS
ESTEVAN        SUNNY     64  59  82 S8        30.09F
KINDERSLEY     MOSUNNY   64  50  59 S9        29.90S
LLOYDMINSTER   PTSUNNY   61  52  72 NW6       29.87R
PRINCE ALBERT  MOSUNNY   63  54  72 S7        29.87F
REGINA         SUNNY     61  54  77 S10       30.02F
YORKTON        SUNNY     63  52  67 S9G17     30.02F
N. BATTLEFORD  CLOUDY    63  52  67 S5        29.89R
LA RONGE       PTSUNNY   68  55  64 SW9       29.78S
SASKATOON      MOSUNNY   64  52  63 S8        29.92S
SWIFT CURRENT  SUNNY     68  48  49 SW17      29.96S
$$
NOTE: THESE ARE AUTOMATED STATIONS WITH LIMITED QUALITY CONTROL
      "FAIR" INDICATES FEW OR NO CLOUDS BELOW 12,000 FEET WITH NO
      SIGNIFICANT WEATHER AND/OR OBSTRUCTIONS TO VISIBILITY.
      SKY/WX - SKY CONDITION AND SIGNIFICANT WEATHER.
      TMP - AIR TEMPERATURE.    DP   - DEWPOINT TEMPERATURE.
      RH  - RELATIVE HUMIDITY.  PRES - PRESSURE.
      HX  - HEAT INDEX.         WCI  - WIND CHILL INDEX.
$



USA.gov is the U.S. government's official web portal to all federal, state and local government web resources and services.